GW1109 Weather Reports


Display with metric or nautical units.
time (UTC)temp
F
wind
direction
speed
MPH
gust
MPH
rain 1hr
in
rain 24hr
in
rain mn
in
humidity
%
barometer
mb
20260505223056 73 227 5.0 14.0 0.00 0.00 0.00 42 1004.5
20260505221547 74 200 5.0 13.0 0.00 0.00 0.00 41 1004.1
20260505220048 74 146 5.0 14.0 0.00 0.00 0.00 40 1003.8
20260505214544 75 182 7.0 19.0 0.00 0.00 0.00 39 1003.8
20260505213052 76 190 5.0 19.0 0.00 0.00 0.00 37 1003.7
20260505211540 75 170 7.0 16.0 0.00 0.00 0.00 39 1003.5
20260505210047 75 211 5.0 16.0 0.00 0.00 0.00 40 1003.5
20260505204545 75 206 8.0 23.0 0.00 0.00 0.00 40 1003.4
20260505203051 76 165 7.0 16.0 0.00 0.00 0.00 39 1003.4
20260505201544 77 177 8.0 23.0 0.00 0.00 0.00 36 1003.6
20260505200047 77 175 8.0 18.0 0.00 0.00 0.00 36 1003.7
20260505194600 79 209 8.0 22.0 0.00 0.00 0.00 30 1003.7
20260505193045 80 211 15.0 29.0 0.00 0.00 0.00 31 1003.9
20260505191547 80 185 12.0 26.0 0.00 0.00 0.00 30 1004.1
20260505190046 78 189 10.0 22.0 0.00 0.00 0.00 32 1004.3
20260505184541 77 246 10.0 23.0 0.00 0.00 0.00 33 1004.6
20260505183056 78 212 8.0 20.0 0.00 0.00 0.00 34 1004.8
20260505181545 78 205 10.0 22.0 0.00 0.00 0.00 33 1004.9
20260505180049 79 219 16.0 28.0 0.00 0.00 0.00 34 1004.9
20260505174548 78 229 12.0 27.0 0.00 0.00 0.00 33 1005.2
20260505173051 78 192 12.0 28.0 0.00 0.00 0.00 34 1005.3
20260505171548 77 198 11.0 25.0 0.00 0.00 0.00 35 1005.7
20260505170047 76 230 7.0 19.0 0.00 0.00 0.00 38 1005.9
20260505164558 76 246 10.0 22.0 0.00 0.00 0.00 37 1006.3
20260505163053 76 261 12.0 24.0 0.00 0.00 0.00 38 1006.7
20260505161544 74 270 9.0 19.0 0.00 0.00 0.00 40 1006.6
20260505153105 72 180 7.0 20.0 0.00 0.00 0.00 44 1007.7
20260505151553 70 242 8.0 17.0 0.00 0.00 0.00 44 1007.9
20260505140104 63 206 7.0 15.0 0.00 0.00 0.00 55 1008.0
20260505124547 59 217 10.0 17.0 0.00 0.00 0.00 59 1008.5
20260505123045 59 246 9.0 19.0 0.00 0.00 0.00 58 1008.3
20260505121544 58 205 8.0 14.0 0.00 0.00 0.00 60 1008.0
20260505120049 56 236 7.0 13.0 0.00 0.00 0.00 61 1007.9
20260505114548 56 238 4.0 9.0 0.00 0.00 0.00 62 1008.2
20260505113047 55 240 3.0 10.0 0.00 0.00 0.00 63 1008.2
20260505111553 54 223 3.0 8.0 0.00 0.00 0.00 64 1008.3
20260505101541 51 200 3.0 11.0 0.00 0.00 0.00 68 1008.2
20260505100049 51 213 3.0 10.0 0.00 0.00 0.00 68 1008.2
20260505094553 51 218 4.0 10.0 0.00 0.00 0.00 68 1008.2
20260505093048 52 182 4.0 9.0 0.00 0.00 0.00 66 1008.1
20260505091555 52 204 3.0 8.0 0.00 0.00 0.00 65 1008.1
20260505090052 52 198 2.0 9.0 0.00 0.00 0.00 65 1008.2
20260505084541 52 216 3.0 7.0 0.00 0.00 0.00 64 1008.3
20260505083052 52 215 3.0 8.0 0.00 0.00 0.00 64 1008.4
20260505081558 52 210 3.0 8.0 0.00 0.00 0.00 64 1008.4
20260505080049 52 220 4.0 9.0 0.00 0.00 0.00 63 1008.6
20260505074604 53 223 5.0 10.0 0.00 0.00 0.00 62 1008.5
20260505073052 53 208 7.0 12.0 0.00 0.00 0.00 61 1008.6
20260505071547 53 227 7.0 15.0 0.00 0.00 0.00 60 1008.6
20260505070047 54 221 8.0 14.0 0.00 0.00 0.00 59 1008.5
20260505064547 54 227 6.0 14.0 0.00 0.00 0.00 59 1008.5
20260505063045 54 247 6.0 13.0 0.00 0.00 0.00 58 1008.6
20260505061606 54 240 7.0 14.0 0.00 0.00 0.00 57 1008.7
20260505060046 55 202 7.0 14.0 0.00 0.00 0.00 57 1008.6
20260505054604 55 209 8.0 14.0 0.00 0.00 0.00 55 1008.6
20260505053049 55 180 8.0 16.0 0.00 0.00 0.00 55 1008.7
20260505051547 55 220 6.0 13.0 0.00 0.00 0.00 55 1008.7
20260505041541 57 232 7.0 15.0 0.00 0.00 0.00 51 1008.6
20260505040050 58 206 9.0 14.0 0.00 0.00 0.00 50 1008.5
20260505034545 58 207 6.0 17.0 0.00 0.00 0.00 49 1008.2
20260505033048 59 257 7.0 12.0 0.00 0.00 0.00 48 1008.2
20260505031541 59 211 6.0 17.0 0.00 0.00 0.00 48 1008.2
20260505030048 59 224 8.0 19.0 0.00 0.00 0.00 47 1008.1
20260505024605 59 225 7.0 17.0 0.00 0.00 0.00 46 1008.0
20260505023049 59 206 8.0 20.0 0.00 0.00 0.00 45 1007.9
20260505021602 60 225 5.0 12.0 0.00 0.00 0.00 41 1007.9
20260505020047 60 205 4.0 9.0 0.00 0.00 0.00 41 1007.7
20260505014545 60 229 4.0 8.0 0.00 0.00 0.00 40 1007.4
20260505013040 60 219 2.0 6.0 0.00 0.00 0.00 41 1007.2
20260505011554 60 224 3.0 7.0 0.00 0.00 0.00 40 1007.1
20260505010048 60 238 2.0 5.0 0.00 0.00 0.00 40 1006.9
20260505004546 61 209 3.0 5.0 0.00 0.00 0.00 38 1006.6
20260505003040 62 200 2.0 6.0 0.00 0.00 0.00 36 1006.5
20260505001541 62 187 1.0 4.0 0.00 0.00 0.00 37 1006.3
20260505000049 62 229 1.0 3.0 0.00 0.00 0.00 36 1006.1
20260504234547 64 248 1.0 4.0 0.00 0.00 0.00 34 1005.9
20260504233055 65 249 2.0 6.0 0.00 0.00 0.00 33 1005.9
20260504231541 66 0 2.0 12.0 0.00 0.00 0.00 32 1005.7
20260504230047 67 215 5.0 10.0 0.00 0.00 0.00 29 1005.3
20260504224546 67 246 5.0 9.0 0.00 0.00 0.00 30 1005.3